This is the latest recevied weather packets stored in our database for station/object KD8FRE. If no packets are shown the sender has not sent any weather packets the latest 10 day(s).
| Time | Temp. | Humidity | Pressure | Rain* | Wind** | Luminosity | Snow |
|---|---|---|---|---|---|---|---|
| 1777844395 | 15.56° C | 42% | 1009.7 hPa | 0 mm | - | 116 W/m² | - |
| 1777844093 | 15.56° C | 42% | 1009.4 hPa | 0 mm | - | 105 W/m² | - |
| 1777843789 | 15.56° C | 42% | 1009.6 hPa | 0 mm | - | 82 W/m² | - |
| 1777843486 | 15.56° C | 40% | 1009.4 hPa | 0 mm | - | 90 W/m² | - |
| 1777843178 | 15.56° C | 41% | 1009.6 hPa | 0 mm | - | 94 W/m² | - |
| 1777842875 | 16.11° C | 41% | 1009.4 hPa | 0 mm | - | 146 W/m² | - |
| 1777842570 | 15.56° C | 41% | 1009.7 hPa | 0 mm | - | 321 W/m² | - |
| 1777842267 | 15.56° C | 42% | 1009.5 hPa | 0 mm | - | 121 W/m² | - |
| 1777841962 | 16.11° C | 41% | 1009.5 hPa | 0 mm | - | 99 W/m² | - |
| 1777841660 | 16.11° C | 42% | 1009.4 hPa | 0 mm | - | 133 W/m² | - |
| 1777841356 | 16.11° C | 41% | 1009.6 hPa | 0 mm | - | 124 W/m² | - |
| 1777841054 | 16.67° C | 39% | 1009.6 hPa | 0 mm | - | 119 W/m² | - |
| 1777840751 | 16.67° C | 40% | 1009.6 hPa | 0 mm | - | 231 W/m² | - |
| 1777840448 | 16.67° C | 38% | 1009.5 hPa | 0 mm | - | 162 W/m² | - |
| 1777840145 | 16.67° C | 38% | 1009.8 hPa | 0 mm | - | 357 W/m² | - |
| 1777839843 | 16.67° C | 39% | 1009.7 hPa | 0 mm | - | 386 W/m² | - |
| 1777839541 | 16.67° C | 36% | 1009.8 hPa | 0 mm | - | 362 W/m² | - |
| 1777839238 | 16.67° C | 39% | 1009.8 hPa | 0 mm | - | 494 W/m² | - |
| 1777838935 | 16.67° C | 37% | 1009.8 hPa | 0 mm | - | 142 W/m² | - |
| 1777838631 | 16.67° C | 37% | 1009.8 hPa | 0 mm | - | 433 W/m² | - |
| 1777838328 | 16.67° C | 38% | 1009.8 hPa | 0 mm | - | 388 W/m² | - |
| 1777838024 | 16.67° C | 38% | 1010 hPa | 0 mm | - | 530 W/m² | - |
| 1777837722 | 16.11° C | 35% | 1009.9 hPa | 0 mm | - | 575 W/m² | - |
| 1777837418 | 16.11° C | 37% | 1010.1 hPa | 0 mm | - | 473 W/m² | - |
| 1777837114 | 16.11° C | 38% | 1010.3 hPa | 0 mm | - | 105 W/m² | - |
* Rain latest hour (hover to see other rain measurements)
** Current wind speed in m/s (hover to see current wind gust speed)